Regional Weather Roundup
Issued by NWS Little Rock, AR

Home | Current Version | Previous Version | Text Only | Print | Product List | Glossary Off
Versions: 1 2 3 4 5 6 7 8 9 10 11 12 13 14 15 16 17 18 19 20 21 22 23 24 25 26 27 28 29 30 31 32 33 34 35 36 37 38 39 40 41 42 43 44 45 46 47 48 49 50

000
ASUS44 KLZK 022205
RWRLZK

WEATHER ROUNDUP FOR ARKANSAS
NATIONAL WEATHER SERVICE LITTLE ROCK AR
500 PM CDT SUN AUG 02 2015

NOTE: "FAIR" INDICATES FEW OR NO CLOUDS BELOW 12,000 FEET WITH NO
SIGNIFICANT WEATHER AND/OR OBSTRUCTIONS TO VISIBILITY.

ARZ001-003-010-029-022300-
NORTHWEST ARKANSAS

CITY           SKY/WX    TMP DP  RH WIND       PRES   REMARKS
FAYETTEVILLE   MOSUNNY   88  64  44 W9        29.96F HX  89
FORT SMITH     MOSUNNY   94  61  33 NE7       29.89F HX  94
HARRISON       SUNNY     87  67  51 W5        29.96S HX  90
BENTONVILLE    SUNNY     90  61  37 W9        29.97F HX  89
ROGERS         MOSUNNY   90  62  39 W8        29.97F HX  90
SILOAM SPGS    MOSUNNY   91  64  40 SW9       29.94F HX  93
HIGHFILL       SUNNY     91  64  40 SW8       29.96F HX  92
SPRINGDALE     MOSUNNY   90  61  37 W9        29.98F HX  89
$$

ARZ004-005-016-022300-
NORTH CENTRAL ARKANSAS

CITY           SKY/WX    TMP DP  RH WIND       PRES   REMARKS
BATESVILLE     SUNNY     93  63  36 CALM      29.91F HX  94
FLIPPIN        MOSUNNY   93  61  33 NW5       29.91S HX  93
MTN HOME       MOSUNNY   90  66  45 CALM      29.92F HX  92
$$

ARZ040-041-022300-
WEST CENTRAL ARKANSAS

CITY           SKY/WX    TMP DP  RH WIND       PRES   REMARKS
MENA           SUNNY     97  55  24 E7        29.94F HX  95
MOUNT IDA      SUNNY     96  54  24 VRB5      29.91F HX  94
$$

ARZ009-017-025-026-028-022300-
NORTHEAST ARKANSAS

CITY           SKY/WX    TMP DP  RH WIND       PRES   REMARKS
JONESBORO      PTSUNNY   90  68  48 SW5       29.91S HX  94
NEWPORT        SUNNY     93  68  44 SE6       29.92F HAZE    HX  97
WALNUT RIDGE   MOSUNNY   91  66  43 SW8       29.90S HX  94
BLYTHEVILLE    MOSUNNY   92  71  50 CALM      29.91F HX  98
$$

ARZ022-023-033-042-044-022300-
CENTRAL ARKANSAS

CITY           SKY/WX    TMP DP  RH WIND       PRES   REMARKS
LITTLE ROCK    PTSUNNY   95  63  34 SE8       29.90S HX  96
N LITTLE ROCK  PTSUNNY   95  65  36 S7        29.90S HX  97
JACKSONVILLE   SUNNY     96  63  33 SE8       29.89F HX  97
SEARCY         SUNNY     95  68  41 S5        29.91F HX  99
HOT SPRINGS    SUNNY     98  55  23 S6        29.90F HX  96
RUSSELLVILLE   SUNNY     96  57  27 CALM      29.89F HX  95
$$

ARZ036-022300-
EAST ARKANSAS

CITY           SKY/WX    TMP DP  RH WIND       PRES   REMARKS
WEST MEMPHIS   MOSUNNY   92  71  50 VRB5      29.90F HX  98
$$

ARZ050-053-066-070-073-022300-
SOUTHWEST ARKANSAS

CITY           SKY/WX    TMP DP  RH WIND       PRES   REMARKS
ARKADELPHIA    FAIR     100  54  21 CALM      29.90F HX  98
CAMDEN         SUNNY     97  55  24 CALM      29.90S HX  95
TEXARKANA      SUNNY     95  58  28 N5        29.91F HX  94
EL DORADO      SUNNY     96  59  29 NE9       29.91S HX  95
DE QUEEN       SUNNY     95  61  32 E8        29.89F HX  95
$$

ARZ056-057-069-022300-
SOUTHEAST ARKANSAS

CITY           SKY/WX    TMP DP  RH WIND       PRES   REMARKS
PINE BLUFF     MOSUNNY   94  67  41 E8        29.91F HX  97
STUTTGART      SUNNY     93  63  36 N3        29.91F HX  94
MONTICELLO     MOSUNNY   96  62  32 E8        29.90F HX  97

$$




USA.gov is the U.S. government's official web portal to all federal, state and local government web resources and services.